Cincinnati, OH

11:41 PM EDT on October 23, 2019 (GMT -0400)
Cincinnati Municipal-Lunken

Weather History for KLUK - September, 2019

Change the Weather History Date:

Tuesday, September 17, 2019

  Actual Average Record
Temperature  
Mean Temperature 73 °F -  
Max Temperature 86 °F 77 °F 91 °F (1970)
Min Temperature 62 °F 56 °F 40 °F (1959)
Cooling Degree Days 8    
Growing Degree Days 23 (Base 50)    
Moisture  
Dew Point 62 °F    
Average Humidity 80    
Maximum Humidity 100    
Minimum Humidity 43    
Precipitation  
Precipitation 0.00 in - - ()
Sea Level Pressure  
Sea Level Pressure 30.09 in    
Wind  
Wind Speed 2 mph ()    
Max Wind Speed 12 mph    
Max Gust Speed -    
Visibility 7.4 miles    
Events      
Averages and records for this station are not official NWS values.
T = Trace of Precipitation, MM = Missing Value Source: Averaged Metar Reports

Daily Weather History Graph

Daily Weather History Graph

Search for Another Location

Airport or City:

Astronomy

Sep. 17, 2019 Rise Set
Actual Time 7:20 AM EDT 7:43 PM EDT
Civil Twilight 6:53 AM EDT 8:09 PM EDT
Nautical Twilight 6:22 AM EDT 8:41 PM EDT
Astronomical Twilight 5:50 AM EDT 9:13 PM EDT
Moon 9:47 PM EDT (9/17) 10:23 AM EDT (9/17)
Length of Visible Light 13h 16m
Length of Day
12h 22m
Waning Gibbous, 89% of the Moon is Illuminated
Sep 17
Waning Gibbous
Sep 21
Last Quarter
Sep 28
New
Oct 5
First Quarter
Oct 13
Full

Hourly Weather History & Observations

Time (EDT) Temp. Heat Index Dew Point Humidity Pressure Visibility Wind Dir Wind Speed Gust Speed Precip Events Conditions
4:26 AM 63.0 °F - 63.0 °F 100% 30.07 in 3.0 mi Calm Calm - N/A   Clear
4:53 AM 63.0 °F - 63.0 °F 100% 30.06 in 8.0 mi Calm Calm - N/A   Clear
5:26 AM 62.1 °F - 62.1 °F 100% 30.08 in 0.8 mi Calm Calm - N/A   Clear
5:34 AM 63.0 °F - 62.1 °F 97% 30.08 in 2.0 mi Calm Calm - N/A   Clear
5:42 AM 63.0 °F - 62.1 °F 97% 30.08 in 6.0 mi Calm Calm - N/A   Clear
5:53 AM 63.0 °F - 62.1 °F 97% 30.07 in 3.0 mi Calm Calm - N/A   Clear
5:58 AM 63.0 °F - 63.0 °F 100% 30.08 in 1.8 mi Calm Calm - N/A   Clear
6:11 AM 62.1 °F - 62.1 °F 100% 30.09 in 0.8 mi Calm Calm - N/A   Clear
6:16 AM 62.1 °F - 62.1 °F 100% 30.09 in 2.0 mi Calm Calm - N/A   Clear
6:24 AM 63.0 °F - 63.0 °F 100% 30.09 in 6.0 mi Calm Calm - N/A   Clear
6:53 AM 63.0 °F - 62.1 °F 97% 30.09 in 10.0 mi Calm Calm - N/A   Clear
7:53 AM 64.0 °F - 63.0 °F 96% 30.11 in 6.0 mi Calm Calm - N/A   Clear
8:53 AM 69.1 °F - 64.9 °F 87% 30.12 in 10.0 mi NE 5.8 mph - N/A   Clear
9:53 AM 73.0 °F - 64.0 °F 73% 30.12 in 10.0 mi NE 6.9 mph - N/A   Clear
10:53 AM 75.9 °F - 64.0 °F 67% 30.13 in 10.0 mi ENE 6.9 mph - N/A   Clear
11:53 AM 80.1 °F 81.2 °F 62.1 °F 54% 30.12 in 10.0 mi NE 4.6 mph - N/A   Clear
12:53 PM 82.9 °F 83.3 °F 61.0 °F 47% 30.11 in 10.0 mi ENE 8.1 mph - N/A   Clear
1:53 PM 84.9 °F 85.0 °F 61.0 °F 44% 30.10 in 10.0 mi NNE 11.5 mph - N/A   Clear
2:53 PM 82.9 °F 83.2 °F 60.1 °F 46% 30.08 in 10.0 mi NNE 9.2 mph - N/A   Scattered Clouds
3:53 PM 84.9 °F 84.8 °F 60.1 °F 43% 30.06 in 10.0 mi NNE 9.2 mph - N/A   Mostly Cloudy
5:53 PM 82.4 °F 82.5 °F 59.0 °F 45% 30.06 in 10.0 mi NE 9.2 mph - N/A   Scattered Clouds
6:53 PM 81.0 °F 81.3 °F 59.0 °F 47% 30.05 in 10.0 mi ENE 8.1 mph - N/A   Partly Cloudy
7:53 PM 72.0 °F - 63.0 °F 73% 30.05 in 10.0 mi Calm Calm - N/A   Clear
8:53 PM 69.1 °F - 63.0 °F 81% 30.07 in 10.0 mi Calm Calm - N/A   Clear
9:53 PM 64.9 °F - 62.1 °F 90% 30.08 in 10.0 mi NE 3.5 mph - N/A   Clear
10:53 PM 64.0 °F - 62.1 °F 93% 30.08 in 10.0 mi ENE 3.5 mph - N/A   Clear
11:53 PM 63.0 °F - 61.0 °F 93% 30.09 in 10.0 mi NE 3.5 mph - N/A   Clear